Location: Crasville
(49.5505°N, 1.3425°W)
Time: 05:47:53
(UTC+00:00)

Daily predictions for brighter satellites

Satellite Brightness Start Highest point End
(mag) Time Altitude Azimuth Time Altitude Azimuth Time Altitude Azimuth
SL-16 R/B 4.2 00:12:19 26° NE 00:12:19 26° NE 00:17:04 10° N
Cosmos 1943 Rocket 4.1 00:17:16 26° NNE 00:17:16 26° NNE 00:19:39 10° NNE
COSMOS 2455 4.4 00:18:59 31° N 00:18:59 31° N 00:23:01 10° NNE
Cosmos 2297 Rocket 4.2 00:24:12 10° NNW 00:28:40 23° NE 00:28:49 23° NE
Cosmos 2369 Rocket 3.9 00:41:06 29° NNE 00:41:06 29° NNE 00:43:49 10° NNE
NOSS 3-1 (A) 4.4 00:31:43 10° NW 00:37:40 57° N 00:37:40 57° N
CZ-4C R/B 3.8 00:47:10 33° N 00:47:10 33° N 00:52:06 10° NE
Cosmos 2227 Rocket 3.5 01:20:54 10° NNW 01:25:13 37° NNE 01:25:13 37° NNE
USA 234 3.7 01:28:35 10° E 01:34:58 58° NNE 01:37:43 35° NW
ADEOS II 3.8 01:34:45 10° NE 01:38:28 26° E 01:38:28 26° E
Cosmos 2181 Rocket 4.5 01:47:57 55° ENE 01:47:57 55° ENE 01:53:14 10° NNE
SL-16 R/B 3.3 01:57:26 42° NNW 01:57:26 42° NNW 02:01:26 10° NNW
Cosmos 1943 Rocket 4.2 01:58:47 17° NW 01:58:58 17° NW 02:02:36 10° N
ARIANE 5 R/B 4.4 01:57:19 10° NE 02:01:10 21° E 02:01:51 21° ESE
CZ-2D R/B 3.0 01:58:19 10° NNE 02:02:04 47° NNE 02:02:04 47° NNE
ATLAS 5 CENTAUR R/B 3.3 02:07:56 31° NE 02:07:56 31° NE 02:10:32 10° NE
NPP 4.2 02:04:22 10° NNE 02:08:28 54° NNE 02:08:28 54° NNE
Cosmos 2297 Rocket 3.5 02:07:46 10° NNW 02:10:32 30° NNW 02:10:32 30° NNW
Resurs 1-4 Rocket 2.9 02:12:12 10° N 02:15:58 46° N 02:15:58 46° N
Cosmos 2082 4.3 02:12:05 10° NNW 02:17:40 54° NE 02:20:24 29° ESE
Cosmos 2369 Rocket 4.2 02:22:52 17° NW 02:23:25 17° NW 02:27:05 10° N
SJ 16-02 4.4 02:25:13 10° NNE 02:27:37 14° NE 02:30:01 10° E
Cosmos 1697 Rocket 3.6 02:32:33 38° SE 02:33:12 40° ESE 02:38:23 10° NE
CZ-4C R/B 4.5 02:32:20 12° NW 02:36:38 24° N 02:42:15 10° NE
Cosmos 1980 Rocket 4.0 02:35:19 19° SE 02:37:33 25° ESE 02:42:02 10° NE
USA 267 3.3 02:34:56 10° ENE 02:41:27 65° SE 02:42:17 60° S
Cosmos 2263 Rocket 4.0 02:38:41 10° NNW 02:43:37 30° NE 02:48:32 10° ESE
Cosmos 1818 3.6 02:46:11 69° NNW 02:46:11 69° NNW 02:51:23 10° NE
ATLAS 2AS CENTAUR R/B 4.4 02:42:11 10° NW 02:49:03 32° NNE 02:55:32 10° E
USA 307 4.4 02:52:25 29° ESE 02:52:25 29° ESE 02:55:16 10° ENE
Cosmos 1821 Rocket 4.0 02:47:19 10° N 02:53:42 81° E 02:56:30 36° SSE
USA 308 4.3 02:55:23 31° ESE 02:55:23 31° ESE 02:58:23 10° ENE
Cosmos 1470 Rocket 4.1 02:50:39 10° N 02:55:02 57° ENE 02:55:25 54° E
SL-24 R/B 4.5 02:59:50 57° SE 03:00:44 75° ENE 03:06:00 10° N
SL-24 R/B - RUBIN 2 4.5 03:01:09 61° WSW 03:02:21 77° NW 03:09:09 10° NE
Celestis-02/Orion 38 4.5 03:02:22 10° SSE 03:07:39 89° WSW 03:12:51 10° NNW
Cosmos 1934 Rocket 4.3 03:02:40 10° N 03:08:42 64° ENE 03:14:42 10° SSE
Cosmos 1777 Rocket 3.9 03:03:54 10° NNW 03:09:11 88° WSW 03:12:06 27° SSE
Cosmos 2227 Rocket 3.8 03:05:04 10° NW 03:06:57 20° NW 03:06:57 20° NW
Meteor 1-22 4.4 03:04:50 10° NNW 03:10:19 75° W 03:11:01 65° SSW
Cosmos 1992 Rocket 4.4 03:10:37 48° WNW 03:10:37 48° WNW 03:15:38 10° NNE
Cosmos 1782 3.7 03:10:11 41° ESE 03:10:51 45° E 03:14:44 10° NNE
Lacrosse 5 2.1 03:12:00 52° SSE 03:12:33 55° SE 03:17:30 10° ENE
Cosmos 1656 3.6 03:12:05 61° W 03:12:34 64° WNW 03:18:05 10° NNE
Cosmos 1515 Rocket 4.1 03:15:08 41° SSE 03:16:21 57° E 03:20:44 10° NNE
Meteor 1-20 Rocket 4.0 03:11:54 10° NNW 03:17:22 72° W 03:18:42 51° SSW
CZ-2C R/B 4.0 03:13:52 10° NNE 03:17:23 37° E 03:18:32 29° SE
USA 234 3.1 03:11:26 10° SE 03:17:56 70° SW 03:24:29 10° WNW
ADEOS II 2.3 03:14:05 10° N 03:19:10 50° WNW 03:19:23 49° WNW
USA 276 3.7 03:21:38 34° E 03:21:38 34° E 03:23:39 10° E
CZ-4B R/B 3.9 03:15:54 10° N 03:20:41 44° WNW 03:20:44 44° WNW
Nadezhda 3 Rocket 3.8 03:18:39 42° SSW 03:20:52 81° W 03:27:04 10° N
SL-08 R/B 3.9 03:26:12 39° WNW 03:26:12 39° WNW 03:29:33 10° NNW
Cosmos 972 Rocket 3.8 03:24:15 53° SSW 03:25:25 85° ESE 03:30:23 10° NNE
Cosmos 1356 4.1 03:24:04 10° N 03:27:28 54° ENE 03:28:27 38° SE
Cosmos 1633 Rocket 4.4 03:23:46 10° NNW 03:26:00 26° NW 03:26:00 26° NW
MSX 4.2 03:22:32 10° NNE 03:28:18 63° ESE 03:32:39 18° S
Timation 1 Rocket 4.2 03:22:28 10° NNW 03:28:30 84° WSW 03:34:31 10° SSE
Cosmos 1328 Rocket 3.5 03:28:50 66° W 03:28:59 66° WNW 03:33:26 10° N
Cosmos 2278 4.0 03:28:10 30° S 03:30:57 65° ESE 03:36:37 10° NNE
Cosmos 1605 Rocket 4.5 03:25:07 10° N 03:31:29 63° ENE 03:37:49 10° SSE
IDEFIX/ARIANE 42P 2.5 03:26:51 10° NNE 03:32:10 90° ESE 03:34:28 35° SSW
Cosmos 1933 Rocket 3.4 03:28:03 10° N 03:32:28 88° WSW 03:34:18 34° S
CZ-3B R/B 1.9 03:32:05 63° WNW 03:32:28 70° NNW 03:40:17 10° ENE
Cosmos 1606 4.3 03:34:14 23° NW 03:34:14 23° NW 03:36:15 10° N
Cosmos 2228 Rocket 4.0 03:31:12 15° SSE 03:34:33 46° E 03:38:47 10° NNE
IRS-1C 4.3 03:30:46 10° N 03:35:59 54° WNW 03:37:13 44° WSW
NOSS 2-2 (C) 4.4 03:31:14 10° NW 03:36:44 66° SW 03:44:21 10° SSE
Cosmos 1151 Rocket 3.2 03:37:30 49° WNW 03:37:30 49° WNW 03:41:40 10° N
Cosmos 2369 3.6 03:36:41 40° SW 03:38:51 81° WNW 03:44:37 10° NNE
ARIANE 5 R/B 2.5 03:35:39 10° N 03:40:42 61° WNW 03:42:10 43° SW
IRS-1D 4.5 03:36:56 10° N 03:41:37 32° WNW 03:42:16 31° WNW
CZ-2D R/B 3.8 03:39:38 10° NNW 03:43:01 17° NW 03:43:22 17° WNW
CZ-4C R/B 3.0 03:42:39 26° SSE 03:44:38 87° ENE 03:48:14 10° NNW
ATLAS 5 CENTAUR R/B 3.3 03:49:28 19° NW 03:51:14 23° NNW 03:55:14 10° NNE
Cosmos 1869 Rocket 4.0 03:47:06 10° N 03:51:25 61° ENE 03:55:42 10° SSE
Cosmos 1933 4.4 03:54:06 30° WNW 03:54:06 30° WNW 03:57:27 10° N
Resurs 1-4 Rocket 4.0 03:53:52 10° NNW 03:56:22 14° NW 03:57:02 13° WNW
Meteor 1-4 Rocket 4.3 03:53:41 10° SSE 03:56:46 31° E 03:59:54 10° NNE
USA 305 2.8 03:58:51 40° SW 04:00:20 83° SSE 04:04:36 10° ENE
X-37B 1.4 04:01:25 36° S 04:01:25 36° S 04:04:23 10° ESE
Cosmos 2082 4.4 03:56:39 10° NW 04:01:30 29° WSW 04:01:51 29° WSW
Cosmos 2360 4.3 04:00:36 28° SW 04:03:36 64° WNW 04:09:20 10° NNE
CZ-2D R/B 3.9 04:00:10 10° N 04:04:09 43° WNW 04:05:24 34° WSW
USA 306 2.8 04:02:46 37° WSW 04:04:24 87° SSE 04:08:41 10° ENE
SJ 16-02 1.3 04:02:29 10° NNW 04:06:55 88° ENE 04:11:19 10° SSE
Cosmos 389 Rocket 2.6 04:06:11 41° SW 04:07:04 54° WNW 04:10:35 10° N
Meteor 1-26 Rocket 4.4 04:06:29 26° SW 04:09:18 48° WNW 04:14:33 10° N
PSLV R/B 3.7 04:05:14 10° NNE 04:09:27 70° ESE 04:13:38 10° S
ASTEX 1 3.9 04:08:35 10° N 04:13:15 40° WNW 04:15:51 23° SW
H-2A R/B 2.2 04:09:35 10° S 04:13:50 51° W 04:18:12 10° NNW
ERS-2 2.0 04:11:04 10° SSE 04:14:43 78° WSW 04:18:25 10° NNW
Iridium 2 4.1 04:14:43 31° WSW 04:15:53 40° W 04:19:28 10° N
Cosmos 1339 Rocket 4.4 04:10:04 10° SSW 04:16:22 76° W 04:22:36 10° N
CZ-2C R/B 2.6 04:11:59 10° NNE 04:17:07 78° ESE 04:22:18 10° S
Cosmos 1697 Rocket 3.2 04:14:19 24° WSW 04:17:10 41° NW 04:22:29 10° NNE
NOSS 3-4 (A) 4.3 04:10:29 10° NW 04:17:15 61° NE 04:24:45 10° ESE
NOSS 3-4 (C) 4.4 04:10:35 10° NW 04:17:21 61° NE 04:24:51 10° ESE
Cosmos 192 4.3 04:14:10 18° SSW 04:17:47 75° WNW 04:22:43 10° NNE
Gbstr 26 Del rocket 4.4 04:09:58 11° WNW 04:17:52 78° SSW 04:25:07 10° ESE
COSMOS 2441 4.5 04:14:10 10° N 04:18:59 57° WNW 04:22:56 15° SW
PAYLOAD A 3.7 04:15:56 10° NNE 04:20:42 87° WNW 04:25:23 10° SSW
Cosmos 1980 Rocket 2.3 04:17:07 20° SW 04:21:06 64° WNW 04:26:45 10° NNE
USA 267 3.5 04:18:03 10° ENE 04:24:28 61° NNW 04:29:37 17° W
Cosmos 990 Rocket 3.9 04:21:19 10° NNW 04:26:32 86° WSW 04:31:45 10° SSE
Cosmos 2322 Rocket 3.4 04:21:19 10° S 04:26:36 42° ESE 04:31:57 10° NE
Meteor 1-10 Rocket 4.3 04:20:56 10° S 04:26:42 90° ENE 04:32:37 10° NNE
SL-8 R/B 4.0 04:24:00 21° W 04:26:51 47° SSW 04:31:25 10° SE
CZ-4C R/B 4.2 04:21:05 10° NW 04:27:07 35° NNE 04:34:09 10° E
Cosmos 2263 Rocket 2.2 04:22:22 10° NW 04:27:57 62° WSW 04:33:32 10° SSE
NOSS 3-3 (A) 4.1 04:22:36 12° SSW 04:27:59 74° SE 04:34:36 10° NE
NOSS 3-3 (C) 4.1 04:22:46 12° SSW 04:28:06 74° SE 04:34:40 10° NE
USA 307 2.9 04:28:36 22° WSW 04:31:17 73° NNW 04:35:33 10° ENE
Cosmos 468 Rocket 4.5 04:26:09 10° S 04:31:23 64° ESE 04:36:37 10° NNE
Cosmos 1812 2.6 04:27:36 10° SSW 04:31:25 66° W 04:35:17 10° N
SL-16 R/B 2.9 04:28:41 10° S 04:34:13 57° ESE 04:39:47 10° NE
USA 308 3.0 04:31:34 21° WSW 04:34:24 71° NNW 04:38:39 10° ENE
Cosmos 1844 Rocket 4.0 04:29:23 10° NNW 04:34:45 42° NE 04:40:06 10° ESE
Cosmos 1500 3.7 04:31:56 10° NNW 04:35:30 36° W 04:39:02 10° SSW
COSMO-SKYMED 1 4.1 04:32:38 10° SE 04:36:41 40° ENE 04:40:46 10° N
SL-4 R/B 4.4 04:34:40 10° S 04:38:15 22° SE 04:41:58 10° E
Cosmos 2227 4.4 04:33:40 10° NW 04:39:05 48° WSW 04:44:27 10° S
ATLAS CENTAUR R/B 3.7 04:29:05 10° WNW 04:40:13 55° NNE 04:44:30 10° E
ATLAS 2AS CENTAUR R/B 3.2 04:33:46 10° NW 04:41:24 69° NE 04:48:24 10° SE
Cosmos 1666 2.6 04:37:39 10° NNW 04:41:30 68° W 04:45:16 10° S
Landsat 5 4.5 04:37:39 10° SSW 04:41:34 29° W 04:45:30 10° NW
ERBS 3.2 04:42:54 11° SSW 04:46:03 45° SE 04:49:17 10° ENE
Cosmos 1782 4.4 04:45:50 15° W 04:47:26 19° WNW 04:50:20 10° NNW
CZ-4B R/B 1.3 04:45:41 10° S 04:48:46 55° W 04:51:57 10° NNW
Meteor 1-5 Rocket 4.5 04:44:19 10° NNW 04:49:17 41° W 04:54:17 10° SSW
Meteor 2-6 Rocket 4.5 04:43:59 10° SSW 04:49:29 52° WNW 04:55:11 10° N
CZ-2C R/B 4.1 04:48:44 10° NNW 04:51:37 21° WNW 04:53:55 13° WSW
Cosmos 1898 Rocket 3.6 04:49:54 10° NNW 04:55:02 56° WSW 05:00:11 10° S
deb Chang Zheng 4 3.5 04:51:08 10° NNE 04:55:28 86° WNW 04:59:45 10° SSW
Lacrosse 5 2.4 04:51:11 13° W 04:55:37 50° NNW 05:00:35 10° NE
USA 276 2.2 04:53:59 13° W 04:56:46 80° N 05:00:00 10° E
Cosmos 2173 Rocket 4.0 04:51:47 10° N 04:58:07 82° W 05:04:29 10° S
CZ-4B R/B 4.2 04:55:59 10° NNE 04:59:31 40° E 05:02:55 10° S
CZ-4B R/B 4.4 04:55:24 10° NNE 04:59:41 73° ESE 05:04:05 10° S
BREEZE-M DEB (TANK) 3.5 04:57:05 12° WSW 04:59:57 78° SSE 05:09:11 10° E
BREEZE-M DEB (TANK) 3.6 04:54:32 10° SW 05:00:50 36° S 05:03:31 10° E
USA 234 4.3 04:56:48 10° S 05:01:44 23° SW 05:06:43 10° WNW
ADEOS Rocket 3.4 04:55:35 10° S 05:02:12 50° W 05:08:13 10° NNW
USA 32 4.3 05:00:04 10° NNW 05:05:07 49° W 05:10:08 10° SSW
ADEOS 3.6 05:02:16 10° NNE 05:07:29 72° WNW 05:12:40 10° SSW
Cosmos 1707 Rocket 3.6 05:03:20 10° SSW 05:07:35 55° WNW 05:11:52 10° N
Cosmos 44 3.7 05:03:22 10° WSW 05:07:39 43° NW 05:12:11 10° NNE
Cosmos 2061 Rocket 4.3 05:01:16 10° N 05:07:44 82° E 05:14:12 10° S
Cosmos 921 Rocket 3.7 05:05:23 10° SW 05:09:10 33° WNW 05:12:59 10° N
IDEFIX/ARIANE 42P 4.2 05:07:42 10° NNW 05:11:04 17° NW 05:14:25 10° W
SAR-Lupe-4 4.1 05:08:14 10° S 05:11:36 38° W 05:15:00 10° NNW
Cosmos 372 Rocket 4.2 05:06:59 10° NNW 05:12:11 78° ENE 05:17:18 10° SSE
Cosmos 2228 Rocket 4.4 05:09:37 10° WSW 05:13:01 21° WNW 05:16:25 10° NNW
Cosmos 1743 2.8 05:10:10 10° N 05:14:00 81° E 05:17:48 10° SSE
Meteor 1-11 Rocket 4.2 05:09:26 10° NNW 05:14:51 41° W 05:20:07 10° SSW
Okean 1 4.4 05:13:36 10° S 05:17:32 52° E 05:21:29 10° NNE
PSLV R/B 3.9 05:14:05 10° S 05:18:08 76° WSW 05:22:15 10° NNW
ARIANE 5 R/B 4.5 05:17:02 10° NNW 05:18:47 12° NW 05:20:33 10° WNW
